FW6259 Weather Reports


Display with metric or nautical units.
time (UTC)temp
F
wind
direction
speed
MPH
gust
MPH
rain 1hr
in
rain 24hr
in
rain mn
in
humidity
%
barometer
mb
20260507063051 39 209 5.0 14.0 0.00 0.00 0.00 71 1017.6
20260507061503 40 219 4.0 10.0 0.00 0.00 0.00 70 1017.6
20260507060058 40 182 4.0 13.0 0.00 0.00 0.00 70 1017.5
20260507054600 40 152 6.0 18.0 0.00 0.00 0.00 70 1017.4
20260507053100 41 199 6.0 14.0 0.00 0.00 0.00 69 1017.3
20260507051556 41 161 8.0 17.0 0.00 0.00 0.00 68 1017.0
20260507050046 42 152 8.0 16.0 0.00 0.00 0.00 66 1017.0
20260507044502 42 239 5.0 13.0 0.00 0.00 0.00 67 1016.7
20260507043100 42 173 5.0 14.0 0.00 0.00 0.00 66 1016.6
20260507041600 43 232 10.0 21.0 0.00 0.00 0.00 65 1016.6
20260507040045 43 151 6.0 17.0 0.00 0.00 0.00 64 1016.6
20260507034612 44 132 5.0 18.0 0.00 0.00 0.00 63 1016.5
20260507033055 44 195 7.0 14.0 0.00 0.00 0.00 63 1016.5
20260507031549 44 191 8.0 16.0 0.00 0.00 0.00 62 1016.2
20260507030158 45 155 8.0 19.0 0.00 0.00 0.00 61 1016.0
20260507024601 45 219 7.0 18.0 0.00 0.00 0.00 62 1015.9
20260507023103 46 231 6.0 16.0 0.00 0.00 0.00 61 1015.7
20260507021601 46 169 8.0 18.0 0.00 0.00 0.00 60 1015.5
20260507020059 47 220 9.0 18.0 0.00 0.00 0.00 59 1015.5
20260507014605 48 209 8.0 22.0 0.00 0.00 0.00 59 1015.3
20260507013006 47 178 4.0 14.0 0.00 0.00 0.00 62 1015.1
20260507011559 47 182 10.0 18.0 0.00 0.00 0.00 60 1015.2
20260507010051 47 155 8.0 20.0 0.00 0.00 0.00 63 1015.1
20260507004542 47 210 5.0 13.0 0.00 0.00 0.00 62 1015.0
20260507003101 47 136 9.0 18.0 0.00 0.00 0.00 61 1015.1
20260507001609 47 196 9.0 16.0 0.00 0.00 0.00 59 1015.1
20260507000048 46 207 6.0 15.0 0.00 0.00 0.00 60 1015.2
20260506234502 46 167 5.0 17.0 0.00 0.00 0.00 63 1015.2
20260506233102 49 218 6.0 17.0 0.00 0.00 0.00 59 1015.0
20260506231552 47 160 9.0 20.0 0.00 0.00 0.00 59 1014.8
20260506230042 46 188 6.0 13.0 0.00 0.00 0.00 62 1014.9
20260506224601 48 147 7.0 14.0 0.00 0.00 0.00 57 1014.8
20260506223102 47 217 6.0 19.0 0.00 0.00 0.00 61 1014.8
20260506221603 47 229 6.0 13.0 0.00 0.00 0.00 62 1014.9
20260506220047 47 148 7.0 17.0 0.00 0.00 0.00 61 1015.0
20260506214503 47 146 5.0 13.0 0.00 0.00 0.00 65 1014.9
20260506213056 46 181 9.0 18.0 0.00 0.00 0.00 66 1015.0
20260506211550 45 237 7.0 16.0 0.00 0.00 0.00 67 1014.9
20260506210046 45 181 5.0 16.0 0.00 0.00 0.00 69 1015.1
20260506204503 44 153 10.0 18.0 0.00 0.00 0.00 74 1015.1
20260506203055 42 140 5.0 13.0 0.00 0.00 0.00 79 1015.1
20260506201550 41 165 6.0 14.0 0.00 0.00 0.00 79 1015.2
20260506200148 41 262 6.0 15.0 0.00 0.00 0.00 80 1015.1
20260506194609 41 210 5.0 15.0 0.00 0.00 0.00 80 1014.9
20260506193047 41 172 8.0 18.0 0.00 0.00 0.00 78 1014.8
20260506191503 41 221 6.0 10.0 0.00 0.00 0.00 81 1014.6
20260506190056 40 247 8.0 14.0 0.00 0.00 0.00 82 1014.7
20260506184553 40 235 5.0 11.0 0.00 0.00 0.00 83 1014.7
20260506183003 40 262 7.0 12.0 0.00 0.00 0.00 82 1014.6
20260506181502 40 245 5.0 12.0 0.00 0.00 0.00 82 1014.5
20260506180053 40 237 5.0 10.0 0.00 0.00 0.00 83 1014.5
20260506174549 40 263 5.0 9.0 0.00 0.00 0.00 82 1014.6
20260506173124 40 228 5.0 10.0 0.00 0.00 0.00 81 1014.6
20260506171600 40 235 5.0 9.0 0.00 0.00 0.00 81 1014.6
20260506170049 40 198 3.0 11.0 0.00 0.00 0.00 80 1014.6
20260506164545 40 198 5.0 11.0 0.00 0.00 0.00 79 1014.4
20260506163103 40 270 4.0 13.0 0.00 0.00 0.00 80 1014.3
20260506161559 40 168 3.0 12.0 0.00 0.00 0.00 80 1014.1
20260506160144 39 247 3.0 10.0 0.00 0.00 0.00 80 1014.1
20260506154558 39 185 3.0 8.0 0.00 0.01 0.00 82 1014.1
20260506153052 38 274 3.0 9.0 0.00 0.01 0.00 83 1014.0
20260506151545 38 141 4.0 12.0 0.00 0.01 0.00 83 1014.1
20260506150043 38 219 4.0 12.0 0.00 0.01 0.00 83 1013.9
20260506144557 38 229 5.0 13.0 0.00 0.01 0.00 83 1013.9
20260506143047 38 169 5.0 13.0 0.00 0.01 0.00 83 1013.8
20260506141502 38 181 4.0 10.0 0.00 0.01 0.00 81 1013.6
20260506140052 38 162 4.0 13.0 0.00 0.01 0.00 82 1013.5
20260506134516 38 204 5.0 12.0 0.00 0.01 0.00 81 1013.4
20260506133100 38 210 3.0 11.0 0.00 0.01 0.00 80 1013.3
20260506131607 38 255 3.0 14.0 0.00 0.01 0.00 80 1013.1
20260506130045 38 179 4.0 8.0 0.00 0.01 0.00 79 1013.0
20260506124609 38 221 4.0 11.0 0.00 0.04 0.00 79 1012.9
20260506123049 39 207 4.0 14.0 0.00 0.04 0.00 79 1013.0
20260506121504 39 184 8.0 20.0 0.00 0.04 0.00 78 1012.9
20260506114649 39 155 4.0 8.0 0.00 0.04 0.00 77 1012.7
20260506113047 39 222 3.0 13.0 0.00 0.04 0.00 77 1012.7
20260506111659 39 216 1.0 12.0 0.00 0.04 0.00 77 1012.6
20260506110053 39 115 3.0 13.0 0.00 0.04 0.00 78 1012.6
20260506104547 39 210 5.0 12.0 0.00 0.04 0.00 78 1012.5
20260506103107 39 178 5.0 11.0 0.00 0.04 0.00 79 1012.6
20260506101551 39 224 2.0 14.0 0.00 0.04 0.00 79 1012.4
20260506100048 38 194 5.0 9.0 0.00 0.04 0.00 80 1012.3
20260506094559 38 198 5.0 10.0 0.00 0.04 0.00 81 1012.1
20260506093054 39 217 3.0 11.0 0.00 0.04 0.00 81 1012.2
20260506091551 39 165 4.0 14.0 0.00 0.04 0.00 80 1012.2
20260506090059 39 169 4.0 11.0 0.00 0.04 0.00 80 1011.9
20260506084601 39 243 2.0 10.0 0.00 0.04 0.00 81 1011.8
20260506083108 39 229 1.0 9.0 0.00 0.04 0.00 83 1011.5
20260506081502 39 154 7.0 13.0 0.00 0.04 0.00 83 1011.5
20260506073100 39 174 5.0 14.0 0.00 0.05 0.04 83 1011.4
20260506071557 39 194 5.0 15.0 0.00 0.05 0.04 81 1011.4